Temp
52 52 52 52 52 52 50 46 34 48 48 34 34 34 42 49 51 55 52 53 51 48 51 51 51 49 55 61 62 52 54 46 42 45 55 57 55 48 48 37 38 42 40 40
51 51 51 52 52 52 47 38 38 46 48 30 33 42 44 48 49 50 48 48 52 53 49 44 47 53 61 60 57 51 52 42 34 40 46 50 46 51 51 49 45 37 35 41
51 51 51 51 51 52 48 38 31 36 39 46 41 39 41 41 51 50 52 51 54 50 47 50 43 47 55 57 57 51 53 43 37 35 41 46 39 46 51 46 36 38 41 45
50 50 50 50 51 51 47 39 34 40 29 33 43 45 45 41 40 50 52 47 49 47 42 45 44 49 49 51 49 48 47 36 40 47 50 49 45 45 47 38 41 35 42 42
49 49 50 50 50 51 42 34 35 45 44 44 38 43 42 43 45 47 45 45 49 52 45 46 43 46 44 43 46 46 49 38 43 39 47 48 44 47 47 47 46 45 45 43
48 49 50 50 50 49 40 42 47 46 43 43 36 38 44 45 50 51 53 51 48 49 52 56 56 54 52 49 43 39 40 39 38 33 44 44 35 41 42 35 46 45 36 43
47 47 47 48 48 48 43 43 45 40 34 43 41 43 46 47 49 47 51 54 50 56 62 58 55 53 49 48 48 48 40 40 40 34 39 26 43 53 52 47 45 47 47 43
46 46 47 47 48 48 42 45 42 44 36 44 45 45 45 47 50 50 50 55 59 60 51 42 37 37 38 41 47 46 50 42 36 31 32 40 42 46 46 45 43 49 46 43
45 45 45 46 47 47 44 43 51 46 41 41 51 46 47 43 44 45 48 48 60 56 48 38 30 27 34 33 40 50 48 45 37 34 28 24 42 50 54 52 35 49 46 43
45 46 46 45 47 47 45 42 51 47 40 50 52 45 45 51 48 40 43 44 48 54 41 35 30 30 41 31 32 34 35 35 32 32 31 38 47 49 52 33 34 45 43 44
46 46 45 48 50 51 45 43 50 50 43 50 54 57 51 50 48 38 41 43 41 39 33 34 35 35 39 36 39 35 32 30 30 34 30 28 50 47 39 42 47 45 44 44
45 45 46 48 50 51 52 44 51 53 44 39 48 50 56 60 57 51 47 44 41 42 38 40 42 37 38 37 30 43 31 38 36 39 39 47 51 48 51 52 47 47 46 44
46 45 46 47 48 50 50 44 46 45 38 36 38 40 50 57 58 57 41 43 48 46 49 43 41 33 41 30 34 38 45 50 40 41 45 48 49 51 51 52 49 49 49 46
47 46 46 47 48 49 50 45 47 46 42 33 34 49 47 55 56 52 52 50 52 51 48 42 40 37 47 39 38 40 43 46 41 42 46 47 48 49 49 49 49 46 48 47
49 48 49 50 49 50 48 48 49 52 45 34 35 46 51 54 52 50 52 51 48 47 44 42 40 47 44 45 44 37 46 37 38 36 45 46 46 49 51 47 45 46 45 43
49 49 51 51 52 53 51 38 50 55 53 42 32 38 46 50 51 47 50 52 51 51 47 43 45 49 45 39 37 44 44 45 46 41 48 47 47 49 48 43 42 40 37 40
48 49 49 50 49 48 44 40 47 53 56 40 33 32 43 51 50 50 50 53 50 49 46 44 44 46 46 42 35 44 46 46 46 47 43 35 40 33 41 41 40 41 44 42
49 50 50 50 51 51 48 49 49 51 50 46 33 31 35 50 42 41 50 45 46 46 44 47 43 46 46 37 44 46 47 46 45 46 46 38 39 39 39 42 44 42 41 40
49 50 51 53 51 46 48 47 49 56 50 38 37 33 29 49 43 45 45 46 35 47 41 43 45 41 36 42 44 45 46 45 44 44 42 42 41 40 42 42 41 39 38 37
50 52 42 34 46 47 48 51 43 44 46 46 37 43 33 43 41 38 37 42 37 33 40 47 38 36 46 48 49 49 48 46 46 41 39 40 39 40 40 39 38 36 35 33
49 41 40 51 50 52 45 34 36 40 36 40 42 42 37 47 36 35 42 36 38 32 35 37 35 30 38 46 46 48 48 48 47 47 45 45 42 38 36 35 34 33 30 27
47 48 51 50 46 41 34 32 37 38 32 38 38 40 42 43 47 37 39 34 36 29 42 35 31 33 41 43 43 45 45 45 44 43 41 40 40 38 35 31 27 25 25 24
53 47 39 40 38 32 32 25 31 30 37 38 39 36 40 42 41 35 35 31 30 41 31 31 30 36 39 39 41 41 43 41 39 38 37 34 32 30 27 23 24 25 24 24
42 37 29 32 30 31 33 36 36 39 40 40 41 39 38 39 34 35 29 32 34 29 28 29 32 37 37 39 40 38 35 34 32 30 28 25 23 22 22 23 23 23 22 20
36 37 28 27 31 34 36 40 39 42 44 43 41 41 41 36 32 36 32 28 27 32 31 32 35 36 37 35 33 28 25 23 23 23 21 21 21 22 22 23 23 22 19 18
37 36 31 34 33 32 34 36 36 45 44 45 44 38 32 32 34 32 31 31 30 32 32 35 36 36 35 31 29 27 26 25 24 22 22 21 20 20 21 21 20 19 19 17
34 30 32 35 33 33 34 38 40 46 41 34 37 31 31 39 34 33 38 30 31 33 35 37 36 33 31 30 28 27 25 24 23 23 22 22 23 21 20 19 21 22 21 18
MSLP
1010.07 1010.42 1010.83 1011.40 1011.88 1012.29 1012.79 1012.91 1012.62 1012.78 1013.38 1014.31 1013.74 1012.27 1010.82 1010.24 1008.82 1008.28 1007.96 1007.61 1007.37 1007.31 1006.34 1005.99 1006.00 1005.86 1006.39 1006.83 1006.51 1007.41 1009.00 1009.51 1009.55 1010.23 1010.71 1010.83 1010.22 1010.72 1011.12 1011.20 1010.77 1010.65 1010.31 1010.13
1008.70 1009.14 1009.68 1010.29 1010.90 1011.50 1012.00 1011.55 1012.01 1012.35 1012.52 1011.80 1011.86 1011.10 1010.29 1009.27 1008.77 1008.05 1008.16 1007.55 1007.24 1007.37 1006.93 1007.05 1007.29 1006.23 1006.69 1007.87 1007.92 1008.34 1009.56 1010.33 1010.63 1010.63 1011.10 1011.27 1010.52 1010.23 1010.85 1011.26 1011.75 1011.46 1011.10 1010.53
1007.34 1007.72 1008.24 1008.95 1009.65 1010.32 1011.24 1011.04 1010.76 1010.93 1010.84 1010.27 1010.02 1009.77 1009.02 1008.47 1008.11 1007.74 1007.49 1007.17 1007.05 1007.17 1007.03 1007.61 1007.82 1007.19 1007.95 1008.89 1009.18 1009.69 1010.29 1010.67 1010.62 1010.21 1009.87 1009.77 1010.39 1010.20 1010.38 1011.06 1011.81 1011.46 1011.15 1011.28
1005.82 1006.15 1006.63 1007.29 1007.92 1008.64 1009.97 1009.49 1008.70 1008.47 1008.17 1009.06 1008.31 1008.07 1007.61 1007.65 1007.48 1007.46 1007.32 1007.06 1006.41 1006.56 1007.03 1007.18 1007.52 1007.61 1009.16 1010.11 1010.48 1011.23 1011.10 1010.89 1011.22 1010.53 1010.18 1009.90 1010.07 1010.24 1010.55 1010.79 1011.44 1012.14 1011.75 1012.23
1004.12 1004.31 1004.62 1005.26 1006.05 1007.09 1007.81 1007.61 1007.30 1007.09 1005.95 1006.78 1007.33 1006.67 1006.14 1005.72 1006.22 1006.47 1006.03 1005.88 1005.72 1005.61 1005.80 1006.09 1006.37 1007.57 1008.45 1009.66 1011.42 1011.98 1011.49 1011.44 1011.15 1010.96 1010.64 1010.36 1010.03 1010.37 1010.72 1010.74 1011.02 1011.74 1012.53 1013.01
1002.04 1001.75 1002.33 1003.08 1004.01 1005.41 1005.22 1006.07 1006.32 1005.29 1004.75 1004.76 1005.68 1004.79 1004.61 1004.30 1004.89 1004.81 1004.88 1005.17 1005.52 1004.91 1004.61 1005.44 1006.54 1007.64 1008.72 1009.23 1010.78 1011.77 1012.04 1012.21 1011.61 1010.98 1010.90 1010.62 1009.99 1010.45 1010.80 1011.03 1010.82 1011.81 1012.67 1013.60
999.62 1000.12 1000.91 1001.65 1002.49 1002.81 1003.67 1004.25 1005.18 1004.82 1003.38 1002.90 1002.59 1003.93 1004.19 1003.64 1003.61 1003.80 1004.49 1004.48 1004.73 1004.77 1004.97 1005.94 1007.58 1008.49 1009.45 1010.65 1011.19 1011.32 1011.81 1012.20 1011.74 1011.34 1010.92 1010.33 1009.95 1009.79 1010.03 1010.24 1010.86 1011.97 1013.02 1014.24
998.91 999.34 999.64 1000.21 1000.87 1001.60 1002.17 1003.03 1002.64 1002.27 1001.50 1001.82 1002.48 1002.45 1002.71 1003.91 1003.87 1003.75 1004.18 1004.06 1004.22 1005.49 1007.04 1008.67 1009.43 1010.27 1010.64 1010.93 1010.76 1011.00 1011.16 1011.65 1011.82 1011.80 1011.25 1010.68 1010.10 1009.96 1009.99 1009.55 1010.59 1012.00 1013.22 1014.70
997.91 997.75 997.77 997.66 997.96 998.82 1000.04 1000.69 1001.57 1001.69 1001.65 999.11 1000.54 1001.51 1002.40 1002.70 1002.93 1003.77 1004.20 1004.89 1004.08 1005.27 1006.64 1008.22 1008.75 1009.18 1009.31 1010.05 1010.06 1010.20 1010.86 1011.40 1012.01 1012.17 1011.60 1010.77 1009.54 1009.29 1010.09 1010.23 1011.32 1012.28 1013.74 1015.13
996.24 995.50 995.02 993.87 991.67 992.28 995.53 997.66 999.72 1001.44 999.79 1000.16 1000.34 999.52 1000.04 1001.43 1002.21 1003.64 1005.02 1005.95 1005.56 1005.92 1006.82 1008.24 1008.94 1008.95 1009.05 1009.12 1009.15 1009.71 1010.63 1011.32 1011.83 1012.02 1011.57 1010.26 1010.08 1010.71 1010.90 1011.54 1013.16 1013.93 1015.11 1015.99
994.91 994.06 992.98 989.55 985.16 984.45 990.89 994.88 997.85 998.52 999.42 999.40 999.32 999.12 999.79 1000.51 1001.34 1002.74 1004.62 1005.57 1006.95 1007.67 1008.10 1008.16 1008.21 1007.96 1008.21 1008.82 1009.31 1009.71 1010.34 1011.35 1011.58 1011.67 1011.48 1010.35 1010.54 1011.27 1011.59 1012.86 1013.51 1014.76 1015.88 1016.72
994.19 993.59 992.35 990.58 989.31 989.42 991.25 994.41 996.88 998.82 1000.62 1001.77 1000.98 1000.32 999.44 999.35 1000.68 1001.60 1003.76 1004.09 1005.59 1006.60 1007.10 1007.61 1007.52 1007.41 1007.81 1008.36 1009.01 1009.47 1010.25 1010.13 1010.30 1010.79 1010.65 1010.41 1010.91 1011.41 1012.44 1013.01 1014.00 1015.05 1016.05 1017.25
994.38 993.72 993.14 992.56 992.34 992.36 993.20 995.02 996.77 999.00 1000.86 1001.91 1002.08 1002.22 1001.32 1000.93 1001.15 1001.99 1003.43 1005.24 1005.41 1005.83 1006.00 1006.46 1006.97 1007.48 1007.19 1008.37 1008.65 1008.95 1008.97 1009.35 1009.79 1010.47 1011.08 1011.04 1011.79 1012.42 1013.19 1013.78 1014.74 1015.85 1016.56 1017.56
994.84 994.47 993.84 993.63 993.83 993.78 994.07 995.81 996.81 997.14 999.32 1002.05 1003.26 1002.67 1002.31 1002.26 1002.45 1003.57 1004.44 1005.07 1005.69 1005.90 1006.21 1006.87 1007.29 1007.20 1007.21 1007.93 1008.72 1008.73 1009.09 1009.52 1010.27 1010.44 1011.01 1011.95 1012.53 1013.26 1014.09 1015.00 1015.84 1016.93 1017.35 1018.02
995.77 995.44 994.86 994.53 994.59 995.01 995.91 996.92 997.36 997.49 997.96 1000.82 1002.46 1002.61 1002.98 1003.10 1004.24 1005.18 1005.31 1005.53 1005.96 1006.04 1006.59 1006.74 1006.82 1007.09 1007.75 1008.13 1008.42 1009.63 1009.82 1010.53 1010.72 1010.91 1011.49 1011.95 1012.98 1014.01 1014.81 1015.73 1016.85 1017.77 1018.21 1018.95
996.59 996.39 996.06 995.63 995.61 995.77 995.76 997.77 998.45 998.04 998.35 999.42 1002.47 1004.73 1004.07 1004.43 1004.79 1005.46 1005.42 1005.44 1005.43 1005.66 1005.97 1006.76 1007.62 1007.71 1007.87 1008.07 1008.81 1010.11 1010.82 1011.16 1011.41 1012.16 1012.57 1013.35 1014.40 1015.29 1016.10 1017.13 1018.25 1019.40 1020.03 1020.31
997.23 997.16 997.04 996.55 996.72 996.84 997.35 998.58 999.31 998.51 998.14 999.94 1003.11 1005.05 1004.94 1004.66 1005.02 1005.20 1005.31 1005.29 1005.85 1006.25 1006.79 1007.34 1007.81 1008.15 1008.05 1008.36 1009.20 1010.40 1011.27 1012.03 1012.47 1013.22 1014.06 1015.55 1016.26 1017.57 1017.81 1018.65 1019.58 1019.93 1020.21 1020.86
997.92 997.94 997.73 997.65 997.37 997.50 998.09 998.97 998.80 998.63 998.98 1000.38 1002.88 1004.92 1005.63 1005.47 1005.36 1005.66 1006.08 1006.35 1006.97 1007.46 1007.71 1007.61 1008.05 1008.57 1008.47 1009.00 1009.82 1010.78 1011.80 1012.57 1013.37 1014.11 1014.96 1016.49 1017.61 1018.40 1019.02 1019.32 1019.62 1020.07 1020.58 1021.38
998.21 998.17 998.06 998.01 998.04 998.76 999.98 1000.07 999.45 999.07 999.85 1001.31 1002.98 1003.83 1004.97 1005.35 1005.75 1006.20 1006.85 1007.46 1008.10 1008.21 1008.19 1008.25 1008.70 1008.96 1008.94 1009.46 1010.34 1011.20 1012.01 1012.66 1013.75 1014.98 1016.13 1017.10 1017.83 1018.56 1019.11 1019.70 1020.29 1020.76 1021.56 1022.34
998.32 998.40 999.05 999.89 1000.10 1000.29 1000.01 999.81 1000.14 1000.74 1001.38 1002.33 1003.60 1004.32 1004.94 1005.69 1006.06 1006.98 1007.82 1008.04 1008.48 1008.69 1008.83 1008.79 1009.25 1010.30 1010.27 1010.54 1011.00 1011.70 1012.43 1013.57 1014.53 1015.37 1016.30 1017.25 1018.05 1018.90 1019.63 1020.55 1021.46 1022.13 1022.82 1023.81
999.05 999.72 1000.15 1000.08 999.99 999.94 1000.58 1001.59 1001.77 1002.37 1003.32 1004.22 1004.54 1004.77 1005.06 1006.17 1006.56 1007.53 1008.03 1008.33 1008.33 1008.43 1009.33 1009.08 1009.54 1011.33 1011.86 1011.82 1012.28 1012.81 1013.60 1014.43 1015.18 1015.89 1016.85 1017.71 1018.72 1019.73 1020.93 1021.99 1022.89 1023.63 1024.54 1025.50
1000.08 1000.17 1000.72 1000.49 1000.42 1000.99 1001.73 1002.68 1002.79 1002.75 1004.04 1004.77 1004.82 1005.39 1005.86 1006.56 1006.92 1007.85 1008.36 1008.48 1008.61 1008.74 1009.26 1009.58 1010.38 1012.02 1012.58 1013.16 1013.79 1014.37 1015.00 1015.86 1016.69 1017.60 1018.46 1019.27 1020.06 1020.97 1022.14 1023.42 1024.62 1025.48 1026.23 1026.82
1000.14 1000.53 1001.37 1001.52 1001.92 1001.85 1002.04 1002.73 1003.10 1003.62 1004.23 1004.90 1005.09 1005.88 1006.60 1007.28 1007.99 1008.70 1008.90 1008.97 1009.36 1009.44 1009.93 1010.21 1011.61 1012.67 1013.60 1014.62 1015.34 1016.02 1016.67 1017.54 1018.49 1019.48 1020.45 1021.44 1022.29 1023.22 1024.19 1025.09 1025.85 1026.36 1027.04 1027.63
1000.75 1001.31 1002.59 1003.10 1003.41 1003.81 1003.39 1002.82 1003.12 1003.83 1004.25 1004.86 1005.55 1005.85 1006.63 1007.62 1008.31 1008.81 1009.42 1010.28 1010.19 1009.90 1010.04 1010.84 1012.46 1013.32 1014.56 1015.55 1016.42 1017.31 1018.33 1019.33 1020.29 1021.38 1022.57 1023.45 1024.20 1024.92 1025.65 1026.04 1026.56 1027.12 1027.79 1028.38
1002.25 1002.90 1004.09 1005.14 1005.45 1005.16 1004.70 1004.13 1004.23 1004.86 1005.00 1005.20 1005.53 1006.02 1006.77 1007.76 1008.68 1008.96 1009.94 1010.38 1010.05 1009.79 1010.25 1011.59 1012.91 1014.30 1015.34 1016.42 1017.73 1019.11 1020.18 1021.27 1022.27 1023.20 1023.96 1024.66 1025.21 1025.77 1026.39 1026.87 1027.30 1027.96 1028.47 1028.90
1004.06 1005.03 1005.95 1006.24 1005.94 1005.90 1005.69 1005.55 1005.35 1005.39 1005.48 1005.37 1005.63 1006.36 1007.36 1007.93 1008.38 1008.71 1009.06 1009.54 1010.02 1010.89 1011.81 1012.69 1013.98 1015.12 1016.35 1017.73 1018.99 1020.30 1021.30 1022.23 1023.16 1024.11 1024.79 1025.36 1025.95 1026.43 1026.98 1027.53 1027.97 1028.35 1028.72 1029.01
1005.86 1007.17 1007.33 1006.99 1007.26 1007.33 1007.23 1006.78 1006.55 1006.24 1006.07 1005.97 1006.25 1006.75 1007.59 1008.05 1008.27 1008.80 1009.26 1010.82 1011.65 1012.31 1013.05 1013.89 1015.04 1016.12 1017.43 1018.59 1019.87 1021.06 1022.02 1022.87 1023.72 1024.48 1025.21 1025.80 1026.35 1026.94 1027.31 1027.65 1028.13 1028.39 1028.81 1029.05
Wind_Speed
23 22 20 19 17 17 16 8 8 11 13 10 3 11 18 23 15 20 19 14 21 19 18 17 20 20 13 6 16 18 7 3 7 17 13 19 14 13 14 4 6 7 4 4
25 25 24 23 21 22 8 6 8 10 12 10 10 15 26 24 20 19 19 16 20 18 18 11 17 17 12 1 4 8 8 4 5 11 8 9 9 14 16 13 4 9 9 3
28 27 27 27 24 26 15 5 7 6 9 13 21 23 23 26 24 26 24 23 19 21 19 12 9 14 6 5 12 10 7 3 9 9 6 9 12 17 16 13 7 7 11 10
29 29 29 30 27 30 17 10 7 8 9 16 24 26 20 27 25 24 19 22 25 19 18 19 24 17 9 4 5 0 4 4 9 9 8 7 11 15 19 12 14 6 7 12
31 32 32 30 30 32 15 11 8 11 13 25 24 23 28 28 27 24 30 27 28 24 22 22 19 21 15 12 11 14 3 3 11 9 11 10 11 12 13 15 17 18 16 14
35 35 32 31 32 31 11 11 13 11 16 20 19 24 29 32 26 25 25 27 22 21 25 19 14 17 13 10 11 6 4 3 5 6 12 12 16 10 12 4 10 10 11 8
22 17 21 24 30 35 8 6 12 14 15 21 23 31 32 30 31 25 22 20 22 19 10 8 11 12 13 9 15 11 10 12 5 4 5 15 9 5 14 18 11 11 11 4
18 25 29 30 33 36 12 11 11 17 22 18 28 31 30 27 24 24 22 24 23 11 17 13 9 5 6 15 17 16 13 7 5 6 10 7 4 7 10 10 12 12 11 5
19 25 31 36 39 43 25 17 15 11 16 28 24 25 25 20 20 18 23 8 16 20 13 8 9 9 10 12 12 16 14 7 5 6 11 9 3 13 5 7 5 12 10 6
18 21 23 37 53 61 30 18 27 16 17 16 23 21 24 24 20 9 13 13 8 11 9 8 5 5 14 10 15 18 9 6 11 11 9 4 10 8 7 5 6 13 8 5
23 13 25 19 12 33 39 19 26 20 16 10 24 22 21 22 18 11 14 13 4 6 7 6 5 6 10 7 12 14 9 9 9 9 10 13 16 8 1 8 11 11 6 6
4 8 13 18 24 28 24 14 18 11 5 1 4 10 7 22 23 12 18 4 14 7 7 6 5 6 7 9 8 14 9 7 6 8 4 11 11 14 10 7 11 8 7 10
5 8 7 11 14 16 20 12 12 11 7 5 6 5 4 10 9 16 10 4 4 5 4 2 2 5 0 5 5 9 7 14 5 6 8 11 13 12 10 9 11 9 7 9
12 3 2 13 23 21 19 9 3 8 7 5 2 4 12 8 14 17 5 13 5 5 6 3 3 3 3 3 5 7 4 5 8 7 14 13 11 10 10 10 12 9 8 8
16 12 22 22 25 24 14 8 3 2 5 6 7 12 14 10 18 13 13 11 10 8 5 3 3 4 5 5 6 2 4 4 5 4 11 3 11 11 11 10 10 6 5 7
15 16 16 20 21 19 10 8 7 8 7 9 6 5 14 14 9 9 11 12 7 2 3 5 3 3 1 2 4 8 12 10 6 6 11 13 13 13 16 14 11 9 7 7
13 12 9 13 20 9 5 5 5 4 6 6 6 5 1 17 11 9 8 10 6 6 4 3 4 3 1 1 5 13 12 13 13 13 13 10 10 6 12 11 8 5 6 7
14 19 17 18 15 10 10 6 7 8 5 5 6 6 5 5 8 7 5 7 5 4 2 3 6 2 0 4 15 15 14 15 14 11 12 13 12 11 9 8 7 5 5 6
12 9 6 7 6 5 4 8 12 6 5 5 3 7 7 6 7 8 4 4 3 2 2 5 5 2 3 17 15 15 14 11 14 14 15 14 12 10 9 7 4 5 7 8
8 6 5 4 3 5 10 3 5 5 5 5 4 5 8 7 5 4 4 2 4 4 3 3 5 4 8 12 12 11 13 15 13 12 12 11 11 9 7 10 8 8 8 9
4 4 3 2 4 1 5 4 4 3 4 4 5 10 10 5 6 5 2 3 3 4 3 4 4 5 6 11 12 11 13 12 9 10 10 10 9 10 9 9 9 10 11 9
4 7 2 4 4 3 6 4 3 4 4 4 9 9 6 5 3 3 2 2 1 5 5 2 5 5 11 11 11 11 12 12 13 13 13 12 11 11 12 11 10 9 8 7
1 3 4 2 3 3 3 4 4 5 4 5 8 7 3 3 4 3 2 3 4 5 2 3 4 9 11 11 10 11 12 14 14 15 14 14 15 14 13 10 8 9 8 7
4 4 6 6 4 6 5 9 9 6 9 10 7 4 4 3 4 1 4 3 3 4 4 4 7 13 13 12 11 11 12 11 14 13 13 13 12 10 9 8 7 8 8 7
5 6 6 6 3 4 4 8 12 10 8 7 6 5 5 4 3 2 5 4 4 3 3 6 10 14 13 11 13 13 12 11 11 10 10 10 10 9 9 7 8 8 6 5
5 7 8 6 6 7 7 7 8 6 3 4 3 4 4 2 3 2 2 5 3 4 4 8 12 14 12 12 12 11 10 10 10 10 10 10 9 9 10 9 7 5 5 4
6 5 5 8 6 6 3 4 5 4 2 2 3 4 5 0 2 3 4 5 4 6 7 9 12 12 13 12 12 10 11 11 11 10 10 9 10 9 8 8 7 6 5 4
Wind_Direction
248 247 240 234 234 237 225 223 227 159 149 187 208 208 211 219 234 237 242 245 219 232 256 230 209 211 224 287 222 190 191 346 227 193 233 232 205 208 212 216 227 215 303 298
246 242 239 236 224 226 208 216 200 170 171 200 208 223 226 228 230 229 222 228 211 217 228 245 268 218 213 233 177 170 170 216 227 193 187 259 241 219 212 226 247 253 247 190
248 244 237 230 228 226 209 188 195 205 191 210 210 218 219 225 224 242 232 231 223 225 221 204 227 250 221 256 211 92 183 268 257 226 243 161 202 231 218 209 217 242 221 258
248 248 241 233 236 218 198 205 213 207 172 193 209 213 219 219 231 228 234 232 222 220 223 210 207 205 173 250 110 6 213 223 266 259 274 190 197 216 219 209 197 229 267 314
250 250 236 235 223 197 204 203 196 200 202 202 208 216 215 222 218 223 220 225 213 224 206 205 201 199 175 173 175 212 220 252 222 224 251 257 258 225 225 220 216 227 242 259
269 244 234 219 197 192 201 203 226 248 212 201 192 215 217 218 222 216 232 223 232 226 212 204 237 189 161 142 158 166 153 233 185 223 221 241 245 228 227 222 226 238 256 298
234 211 219 216 212 192 189 194 199 209 229 209 202 207 219 221 214 221 217 231 215 230 215 112 114 124 141 176 206 183 190 218 200 254 201 238 255 214 235 230 200 225 244 96
226 232 226 222 218 212 206 195 204 205 216 216 209 209 210 224 229 229 210 219 216 140 118 137 118 124 174 230 198 202 207 212 209 219 230 245 191 204 232 223 186 206 213 103
251 250 249 240 228 216 206 204 203 222 206 218 217 209 208 211 219 206 217 326 194 158 156 144 180 177 169 183 188 198 195 200 203 209 234 235 278 133 93 67 200 102 102 109
274 274 259 250 236 217 201 191 200 203 220 214 218 204 199 205 207 174 169 167 144 161 157 178 169 187 178 179 179 177 177 180 214 223 239 215 124 121 154 182 114 93 100 106
278 286 263 344 58 186 169 176 187 195 205 221 234 187 196 205 184 167 162 136 157 162 176 188 177 184 177 155 174 177 162 179 205 218 232 233 132 145 215 108 111 117 144 101
306 300 278 50 65 87 120 133 170 167 133 84 6 16 240 187 185 153 175 118 148 156 154 196 199 173 163 151 176 167 195 200 181 206 218 110 134 99 108 117 128 114 105 95
186 295 137 86 75 95 98 103 127 110 149 60 40 79 41 53 92 135 134 131 106 153 166 134 31 84 100 152 185 165 190 180 168 134 141 128 108 110 105 105 110 112 98 109
120 187 200 134 109 102 104 109 100 91 80 98 112 188 111 141 107 86 69 129 159 146 84 102 183 131 58 166 150 154 118 153 151 114 137 128 123 120 109 88 97 85 69 71
123 115 103 109 108 105 101 102 57 173 125 123 112 99 122 139 129 127 160 149 145 138 145 181 80 81 98 203 107 113 128 189 170 147 136 133 135 113 122 114 83 64 67 72
69 68 92 110 100 106 103 74 3 90 139 110 92 345 133 138 148 137 175 148 180 103 101 66 55 39 350 115 89 104 91 72 61 89 85 94 99 85 90 97 89 90 71 52
91 95 87 70 70 58 47 87 143 33 112 100 91 73 143 111 111 111 107 100 111 94 83 101 132 113 160 226 119 132 118 110 105 94 90 58 70 93 85 100 112 130 108 103
65 104 99 112 106 97 64 29 17 345 57 65 84 110 97 118 97 95 79 82 68 52 90 124 112 133 144 81 118 129 128 120 126 91 87 112 118 110 124 145 159 131 81 58
32 77 85 30 23 59 79 330 314 56 57 92 93 118 104 93 98 102 83 77 66 80 104 120 153 149 34 129 136 137 139 142 111 111 121 137 134 142 136 119 90 87 78 65
14 43 52 35 21 328 302 29 43 42 27 46 79 99 104 126 106 70 63 64 137 143 101 143 87 67 105 127 129 127 110 115 124 132 128 128 131 126 110 86 80 77 82 77
38 48 45 9 270 86 45 53 54 94 83 69 105 116 118 114 102 117 124 146 175 135 161 180 129 136 122 106 105 105 117 120 121 121 131 131 130 111 110 101 91 77 73 74
63 95 82 7 21 47 70 61 36 79 97 124 130 113 90 70 107 89 40 86 255 96 161 181 129 127 141 115 108 105 104 110 103 97 93 88 90 95 100 93 86 82 89 93
110 66 64 5 351 63 100 128 109 115 128 128 124 114 114 101 81 74 109 87 66 114 176 141 88 155 129 136 143 126 113 105 106 101 92 88 86 87 101 106 109 106 96 98
34 44 44 9 50 45 16 73 95 105 117 120 124 106 91 109 72 113 78 72 196 195 164 110 147 139 142 152 141 123 116 106 99 100 103 103 103 92 78 82 93 102 95 73
42 25 51 48 63 42 16 90 102 111 114 129 122 91 76 81 111 102 129 171 162 198 88 116 137 139 149 132 111 107 103 101 102 109 111 114 114 110 102 90 93 100 101 99
58 40 90 102 96 77 65 75 96 104 84 69 60 84 81 76 123 108 126 155 112 79 100 115 131 149 135 120 120 118 120 120 120 121 123 115 117 120 108 102 100 103 119 127
54 33 357 53 55 66 48 54 61 38 57 77 110 70 55 104 80 98 33 37 88 111 120 137 142 133 127 121 120 129 128 128 131 130 129 132 116 122 130 126 142 124 104 110